Boulder City, NV

12:05 AM PST on November 21, 2019 (GMT -0800)
Boulder City

Weather History for KBVU - September, 2019

Change the Weather History Date:

Saturday, September 28, 2019

  Actual Average (KLAS) Record (KLAS)
Temperature  
Mean Temperature 77 °F -  
Max Temperature 86 °F 90 °F 103 °F (1978)
Min Temperature 68 °F 62 °F 48 °F (1971)
Cooling Degree Days 12    
Growing Degree Days 27 (Base 50)    
Moisture  
Dew Point 52 °F    
Average Humidity 43    
Maximum Humidity 64    
Minimum Humidity 28    
Precipitation  
Precipitation 0.00 in - - ()
Sea Level Pressure  
Sea Level Pressure 29.60 in    
Wind  
Wind Speed 15 mph ()    
Max Wind Speed 36 mph    
Max Gust Speed 46 mph    
Visibility 9.9 miles    
Events      
Averages and records for this station are not official NWS values.
T = Trace of Precipitation, MM = Missing Value Source: Averaged Metar Reports

Daily Weather History Graph

Daily Weather History Graph

Search for Another Location

Airport or City:

Astronomy

Sep. 28, 2019 Rise Set
Actual Time 6:31 AM PDT 6:27 PM PDT
Civil Twilight 6:06 AM PDT 6:53 PM PDT
Nautical Twilight 5:36 AM PDT 7:22 PM PDT
Astronomical Twilight 5:06 AM PDT 7:52 PM PDT
Moon 6:15 AM PDT (9/28) 6:54 PM PDT (9/28)
Length of Visible Light 12h 46m
Length of Day
11h 55m
New Moon, 0% of the Moon is Illuminated
Sep 28
New Moon
Oct 5
First Quarter
Oct 13
Full
Oct 21
Last Quarter
Oct 27
New

Hourly Weather History & Observations

Time (PDT) Temp. Heat Index Dew Point Humidity Pressure Visibility Wind Dir Wind Speed Gust Speed Precip Events Conditions
12:15 AM 75.2 °F - 53.6 °F 47% 29.70 in 10.0 mi Calm Calm - N/A   Mostly Cloudy
12:35 AM 75.2 °F - 53.6 °F 47% 29.69 in 10.0 mi WSW 6.9 mph - N/A   Mostly Cloudy
12:55 AM 75.2 °F - 53.6 °F 47% 29.69 in 10.0 mi South 12.7 mph 20.7 mph N/A   Overcast
1:15 AM 75.2 °F - 53.6 °F 47% 29.69 in 10.0 mi South 5.8 mph 12.7 mph N/A   Mostly Cloudy
1:35 AM 75.2 °F - 53.6 °F 47% 29.68 in 10.0 mi South 11.5 mph - N/A   Mostly Cloudy
1:55 AM 73.4 °F - 53.6 °F 50% 29.68 in 10.0 mi South 6.9 mph 17.3 mph N/A   Mostly Cloudy
2:15 AM 73.4 °F - 53.6 °F 50% 29.67 in 10.0 mi South 12.7 mph 19.6 mph N/A   Mostly Cloudy
2:35 AM 73.4 °F - 53.6 °F 50% 29.67 in 10.0 mi South 9.2 mph 17.3 mph N/A   Scattered Clouds
2:55 AM 73.4 °F - 53.6 °F 50% 29.66 in 10.0 mi South 6.9 mph 12.7 mph N/A   Scattered Clouds
3:15 AM 73.4 °F - 53.6 °F 50% 29.66 in 10.0 mi SSW 3.5 mph - N/A   Mostly Cloudy
3:55 AM 71.6 °F - 53.6 °F 53% 29.65 in 10.0 mi South 10.4 mph - N/A   Scattered Clouds
4:15 AM 71.6 °F - 53.6 °F 53% 29.65 in 10.0 mi South 12.7 mph - N/A   Scattered Clouds
4:35 AM 71.6 °F - 55.4 °F 57% 29.65 in 10.0 mi SSW 8.1 mph 15.0 mph N/A   Scattered Clouds
4:55 AM 69.8 °F - 55.4 °F 60% 29.65 in 10.0 mi SW 9.2 mph - N/A   Scattered Clouds
5:15 AM 71.6 °F - 55.4 °F 57% 29.65 in 10.0 mi SSW 8.1 mph - N/A   Scattered Clouds
5:35 AM 69.8 °F - 55.4 °F 60% 29.65 in 10.0 mi South 10.4 mph - N/A   Partly Cloudy
5:55 AM 71.6 °F - 55.4 °F 57% 29.65 in 10.0 mi SSE 17.3 mph 24.2 mph N/A   Clear
6:35 AM 69.8 °F - 55.4 °F 60% 29.66 in 10.0 mi South 13.8 mph - N/A   Clear
6:55 AM 69.8 °F - 57.2 °F 64% 29.66 in 10.0 mi South 17.3 mph 23.0 mph N/A   Clear
7:15 AM 71.6 °F - 57.2 °F 60% 29.65 in 10.0 mi South 15.0 mph 23.0 mph N/A   Clear
7:35 AM 71.6 °F - 57.2 °F 60% 29.66 in 10.0 mi SSE 17.3 mph 24.2 mph N/A   Clear
7:55 AM 73.4 °F - 57.2 °F 57% 29.66 in 10.0 mi SSE 16.1 mph 24.2 mph N/A   Clear
8:15 AM 73.4 °F - 57.2 °F 57% 29.66 in 10.0 mi South 18.4 mph 27.6 mph N/A   Clear
8:35 AM 75.2 °F - 57.2 °F 53% 29.66 in 10.0 mi SSE 24.2 mph - N/A   Clear
8:55 AM 75.2 °F - 57.2 °F 53% 29.65 in 10.0 mi SSE 28.8 mph - N/A   Clear
9:15 AM 75.2 °F - 57.2 °F 53% 29.66 in 10.0 mi South 24.2 mph 35.7 mph N/A   Clear
9:55 AM 77.0 °F - 57.2 °F 50% 29.65 in 10.0 mi SSE 28.8 mph 36.8 mph N/A   Clear
10:15 AM 78.8 °F - 57.2 °F 47% 29.65 in 10.0 mi South 25.3 mph 34.5 mph N/A   Clear
10:35 AM 78.8 °F - 57.2 °F 47% 29.64 in 10.0 mi South 26.5 mph 34.5 mph N/A   Clear
10:55 AM 80.6 °F 80.5 °F 55.4 °F 42% 29.63 in 10.0 mi South 28.8 mph 35.7 mph N/A   Clear
11:15 AM 80.6 °F 80.5 °F 55.4 °F 42% 29.63 in 10.0 mi South 29.9 mph - N/A   Clear
11:35 AM 82.4 °F - 51.8 °F 35% 29.63 in 10.0 mi South 25.3 mph 32.2 mph N/A   Clear
11:55 AM 84.2 °F 82.8 °F 53.6 °F 35% 29.62 in 10.0 mi South 26.5 mph 34.5 mph N/A   Clear
12:15 PM 84.2 °F 83.0 °F 55.4 °F 37% 29.60 in 10.0 mi South 25.3 mph 33.4 mph N/A   Clear
12:35 PM 84.2 °F 83.0 °F 55.4 °F 37% 29.60 in 10.0 mi South 32.2 mph 39.1 mph N/A   Clear
12:55 PM 84.2 °F 83.0 °F 55.4 °F 37% 29.59 in 10.0 mi SSE 26.5 mph 35.7 mph N/A   Clear
1:15 PM 84.2 °F 83.0 °F 55.4 °F 37% 29.58 in 10.0 mi SSE 28.8 mph 36.8 mph N/A   Partly Cloudy
1:35 PM 86.0 °F - 51.8 °F 31% 29.57 in 10.0 mi South 28.8 mph 34.5 mph N/A   Scattered Clouds
1:55 PM 86.0 °F - 51.8 °F 31% 29.55 in 10.0 mi South 28.8 mph 36.8 mph N/A   Scattered Clouds
2:15 PM 84.2 °F 83.0 °F 55.4 °F 37% 29.55 in 10.0 mi SSE 31.1 mph 38.0 mph N/A   Partly Cloudy
2:35 PM 84.2 °F 83.0 °F 55.4 °F 37% 29.54 in 10.0 mi SE 27.6 mph 40.3 mph N/A   Clear
2:55 PM 84.2 °F 83.0 °F 55.4 °F 37% 29.53 in 10.0 mi SSE 31.1 mph 42.6 mph N/A   Partly Cloudy
3:15 PM 84.2 °F 83.0 °F 55.4 °F 37% 29.53 in 5.0 mi SSE 35.7 mph 41.4 mph N/A   Haze
3:35 PM 84.2 °F 82.8 °F 53.6 °F 35% 29.52 in 10.0 mi SSE 31.1 mph 46.0 mph N/A   Clear
3:55 PM 84.2 °F 82.8 °F 53.6 °F 35% 29.52 in 10.0 mi SSE 31.1 mph 44.9 mph N/A   Clear
4:15 PM 82.4 °F 81.4 °F 53.6 °F 37% 29.51 in 10.0 mi SSE 31.1 mph 41.4 mph N/A   Partly Cloudy
4:35 PM 82.4 °F 81.4 °F 53.6 °F 37% 29.51 in 10.0 mi SSE 32.2 mph 39.1 mph N/A   Scattered Clouds
4:55 PM 82.4 °F - 51.8 °F 35% 29.51 in 10.0 mi South 23.0 mph 41.4 mph N/A   Partly Cloudy
5:15 PM 82.4 °F - 51.8 °F 35% 29.51 in 10.0 mi SSE 29.9 mph - N/A   Partly Cloudy
5:35 PM 82.4 °F - 51.8 °F 35% 29.51 in 10.0 mi SSE 26.5 mph 39.1 mph N/A   Partly Cloudy
5:55 PM 80.6 °F - 51.8 °F 37% 29.50 in 10.0 mi SSE 27.6 mph 38.0 mph N/A   Partly Cloudy
6:15 PM 80.6 °F - 50.0 °F 34% 29.51 in 10.0 mi South 26.5 mph 34.5 mph N/A   Partly Cloudy
6:35 PM 78.8 °F - 50.0 °F 36% 29.51 in 10.0 mi South 20.7 mph 32.2 mph N/A   Scattered Clouds
6:55 PM 78.8 °F - 48.2 °F 34% 29.51 in 10.0 mi South 19.6 mph 28.8 mph N/A   Mostly Cloudy
7:15 PM 78.8 °F - 44.6 °F 30% 29.52 in 10.0 mi South 25.3 mph - N/A   Mostly Cloudy
7:35 PM 78.8 °F - 42.8 °F 28% 29.53 in 10.0 mi SW 19.6 mph 31.1 mph N/A   Mostly Cloudy
7:55 PM 77.0 °F - 44.6 °F 32% 29.54 in 10.0 mi SW 19.6 mph 28.8 mph N/A   Mostly Cloudy
8:15 PM 77.0 °F - 42.8 °F 29% 29.54 in 10.0 mi SW 25.3 mph 33.4 mph N/A   Mostly Cloudy
8:35 PM 75.2 °F - 42.8 °F 31% 29.55 in 10.0 mi SW 21.9 mph 34.5 mph N/A   Mostly Cloudy
8:55 PM 75.2 °F - 41.0 °F 29% 29.56 in 10.0 mi SW 27.6 mph 35.7 mph N/A   Mostly Cloudy
9:15 PM 73.4 °F - 41.0 °F 31% 29.57 in 10.0 mi SW 23.0 mph 28.8 mph N/A   Mostly Cloudy
9:55 PM 71.6 °F - 44.6 °F 38% 29.58 in 10.0 mi SSW 12.7 mph 19.6 mph N/A   Mostly Cloudy
10:15 PM 71.6 °F - 44.6 °F 38% 29.58 in 10.0 mi South 12.7 mph - N/A   Mostly Cloudy
10:35 PM 71.6 °F - 42.8 °F 35% 29.57 in 10.0 mi South 15.0 mph 21.9 mph N/A   Scattered Clouds
10:55 PM 71.6 °F - 39.2 °F 31% 29.58 in 10.0 mi SSW 12.7 mph 19.6 mph N/A   Partly Cloudy
11:15 PM 69.8 °F - 41.0 °F 35% 29.59 in 10.0 mi South 9.2 mph 18.4 mph N/A   Clear
11:35 PM 68.0 °F - 39.2 °F 35% 29.59 in 10.0 mi South 9.2 mph - N/A   Clear
11:55 PM 68.0 °F - 37.4 °F 33% 29.60 in 10.0 mi SSW 15.0 mph - N/A   Clear